sat.trackr.live / text

‹ back to catalog

STARLINK-4536

NORAD 53783 · 2022-111L

PAYLOAD ACTIVE UNKNOWN

§ Identity

Operator
Country
US
Launch date
2022-09-11
Launch site
AFETR
Launch vehicle
Mass (kg)
RCS (m²)

Purposes: comms

External: N2YO · Heavens-Above · Gunter

§ Orbital elements

Epoch: 2026-09-20T05:05:30.956640Z

Period
93.79 min
Inclination
53.1614°
Eccentricity
0.0001182
Mean motion
15.35404972 rev/d
Perigee alt
458.9 km
Apogee alt
460.5 km
Semi-major
6,837.9 km
B*
3.9387e-5
RAAN
117.3365°
Arg perigee
99.4836°
Mean anomaly
260.6300°
Rev number
22,310

§ Raw data

STARLINK-45361 53783U 22111L   26263.21216385  .00000994  00000+0  39387-4 0  99952 53783  53.1614 117.3365 0001182  99.4836 260.6300 15.35404972223100

JSON: /api/v1/satellites/53783 · /tle

For live sub-satellite position, see the globe view (requires WebGL).

§ Visibility from observer

Set your observer location to see the next 7 days of passes ≥ 10°. The values pass through the URL so the page stays shareable.

No JS? Fill the form by hand. The geolocation button needs JavaScript.